Other Public Products
Issued by NWS Grand Forks, ND

Home | Current Version | Previous Version | Graphics & Text | Print | Product List | Glossary On
Versions: 1 2 3 4 5 6 7 8 9 10 11 12 13 14 15 16 17 18 19 20 21 22 23 24 25 26 27 28 29 30 31 32 33 34 35 36 37 38 39 40 41 42 43 44 45 46 47 48 49 50
000
FPUS83 KFGF 302231
OPUFGF
PRAIRIE TO PINES WEATHER ROUNDUP
NATIONAL WEATHER SERVICE EASTERN NORTH DAKOTA/GRAND FORKS ND
500 PM CDT THU OCT 30 2014

 **SATELLITE DATA USED TO AUGMENT SKY COVER AT AUTOMATED STATIONS**
 *****  WEATHER ACROSS EASTERN NORTH DAKOTA  *****

CITY           SKY/WX    TMP DP  RH WIND       PRES   REMARKS
GRAND FORKS    PTSUNNY   38  17  42 N22G32    30.41R
GRAND FORKS AF PTSUNNY   37  17  45 N21G28    30.42R
GRAND CITY NWS   N/A     36 N/A N/A N16         N/A
BUXTON           N/A     37  19  47 N14G32      N/A
DEVILS LAKE    SUNNY     36  14  41 N15G22    30.44R
FARGO          CLOUDY    37  23  56 N24G33    30.39R
WAHPETON ARPT  CLOUDY    36  27  69 N22G30    30.38R
$$

 *****  WEATHER ACROSS CENTRAL AND WESTERN NORTH DAKOTA  *****

CITY           SKY/WX    TMP DP  RH WIND       PRES   REMARKS
JAMESTOWN      PTSUNNY   33  22  63 N21G31    30.42R WCI  21
BISMARCK       CLOUDY    36  30  79 N9        30.47R
MINOT          PTSUNNY   31  21  66 N8G18     30.49R WCI  23
MINOT AFB      MOSUNNY   32  22  65 N8        30.49R WCI  25
GARRISON         N/A     33  25  72 NE9       30.47R
WILLISTON      CLOUDY    37  31  78 E9        30.48R
DICKINSON      CLOUDY    36  30  79 NE12      30.42R
HETTINGER      CLOUDY    37  29  72 N10       30.43R
$$

 *****  OTHER OBSERVATIONS NORTHEAST NORTH DAKOTA  *****

CITY           SKY/WX    TMP DP  RH WIND       PRES   REMARKS
WALHALLA         N/A     36  14  41 N23G31    30.47R
LANGDON        FAIR      34  18  51 N20G25    30.44R WCI  22
CAVALIER       FAIR      37  16  41 N20G30    30.45R
GRAFTON        FAIR      37  16  41 N23G31    30.43R
CANDO          FAIR      36  18  48 N15G21    30.48R
FORT TOTTEN      N/A     37  19  48 N8        29.95S
ROLLA          FAIR      32  16  51 N15G23    30.48R WCI  22
RUGBY          FAIR      34  23  64 NW9       30.48R
 ***** THE ABOVE OBSERVATIONS ARE NON NWS ARE NOT QUALITY
        CONTROLLED AND MAY MIS-REPORT RAIN FOR SNOW...
$$

 *****  OTHER OBSERVATIONS SOUTHEAST NORTH DAKOTA *****

CITY           SKY/WX    TMP DP  RH WIND       PRES   REMARKS
COOPERSTOWN    NOT AVBL
VALLEY CITY    MOCLDY    32  23  69 N13G20    30.42R WCI  22
OAKES            N/A     36  28  75 N16G25    30.41R
GWINNER        CLOUDY    36  28  75 N22G29    30.41R
BUFFALO        NOT AVBL
WYNDMERE         N/A     36  27  69 N15         N/A
 ***** THE ABOVE OBSERVATIONS ARE NON NWS ARE NOT QUALITY
       CONTROLLED AND MAY MIS-REPORT RAIN FOR SNOW...
$$

  *****  WEATHER ACROSS NORTHERN MINNESOTA  *****

CITY           SKY/WX    TMP DP  RH WIND       PRES   REMARKS
FLAG ISLAND    PTCLDY    34  19  55 N25G31    30.34R WCI  21
WARROAD        CLEAR     34  18  51 NW16G25   30.36R WCI  23
ROSEAU         CLEAR     34  21  60 N18       30.37R WCI  23
HALLOCK        PTCLDY    34  25  69 N17G31    30.43R WCI  23
THF RVR FALLS  CLOUDY    36  19  51 N20G28    30.37R
HALSTAD          N/A     36  19  51 N18G32      N/A
FOSSTON        CLOUDY    36  21  55 N18G29    30.35R
BAUDETTE       PTCLDY    33  15  47 N25G33    30.30R WCI  20
WASKISH        CLOUDY    36  19  51 N14G29    30.30R
CROOKSTON      CLOUDY    37  21  52 N22G28    30.41R
$$
  *****  WEATHER ACROSS CENTRAL AND WEST MINNESOTA  *****

CITY           SKY/WX    TMP DP  RH WIND       PRES   REMARKS
BEMIDJI        MOCLDY    34  16  48 N17G31    30.29R WCI  23
PARK RAPIDS    CLOUDY    35  25  66 N22G30    30.26R WCI  23
WADENA         CLOUDY    36  25  64 NW13G28   30.27R
DETROIT LAKES  CLOUDY    34  27  75 N21G31    30.33R WCI  22
MOORHEAD       CLOUDY    36  27  69 N21G31    30.40R
FERGUS FALLS   CLOUDY    36  25  64 N20G39    30.34R
ELBOW LAKE     CLOUDY    35  29  78 N23G29    30.31R WCI  23
MORRIS MN      CLOUDY    37  30  75 N26G36    30.29R
STAPLES        CLOUDY    36  25  64 NW20      30.25R
WHEATON        CLOUDY    34  28  80 NW16G28   30.37R WCI  23
$$
  *****  WEATHER ELSEWHERE ACROSS MINNESOTA  *****

CITY           SKY/WX    TMP DP  RH WIND       PRES   REMARKS
DULUTH         MOCLDY    39  32  76 NW10G20   30.10R
INTRNTL FALLS  MIX PCPN  31  22  69 N17G30    30.24R WCI  19
ELY            LGT SNOW  30  30 100 NW13G22   30.10R WCI  20
CLOQUET        CLOUDY    37  30  75 NW12G21   30.13R
BRAINERD       CLOUDY    38  27  64 NW18G29   30.22R
HIBBING        LGT SNOW  32  26  78 NW21G37   30.17R WCI  20
ALEXANDRIA     CLOUDY    38  29  70 N24G30    30.26R
SAINT CLOUD    CLOUDY    45  32  60 NW16G22   30.19R
MINNEAPOLIS    CLOUDY    47  36  65 NW13      30.14R
$$

  *****  WEATHER ACROSS SOUTH DAKOTA  *****

CITY           SKY/WX    TMP DP  RH WIND       PRES   REMARKS
SIOUX FALLS    CLOUDY    45  39  79 N18G25    30.24R
BROOKINGS      NOT AVBL
WATERTOWN      CLOUDY    37  30  75 N21G26    30.30R
HURON          CLOUDY    43  32  65 N23G29    30.35R
SISSETON         N/A     37  30  75 N21G32    30.35R
ABERDEEN       CLOUDY    39  29  67 N22G30    30.40R
MITCHELL       CLOUDY    44  35  70 N22G30    30.33R
PIERRE         SUNNY     47  31  53 N17G25    30.37R
MOBRIDGE       CLOUDY    38  30  73 N16       30.41R
RAPID CITY     SUNNY     48  33  56 NE15      30.35R
$$

  *****  SOME WEATHER IN NEARBY STATES *****

CITY           SKY/WX    TMP DP  RH WIND       PRES   REMARKS
GLASGOW MT     CLOUDY    36  29  75 E14       30.40S
GREAT FALLS MT CLOUDY    58  34  40 E13       30.16F
CHEYENNE WY    SUNNY     57  25  29 E10       30.34R
SCOTTSBLUFF NE SUNNY     64  27  24 N14       30.30S
OMAHA NE       MOSUNNY   59  39  47 NW26G32   30.12R
DES MOINES IA  MOSUNNY   62  38  40 N9        30.04R
DAVENPORT IA   MOCLDY    50  36  58 E3        30.06R
CHICAGO IL     CLOUDY    50  35  56 W7        30.05S
EAU CLAIRE WI  CLOUDY    47  34  60 NW9       30.08R
LA CROSSE WI   CLOUDY    47  38  71 S3        30.08R
$$

  *****  SOME NATIONAL WEATHER *****

CITY           SKY/WX    TMP DP  RH WIND       PRES   REMARKS
LA GUARDIA NY  PTCLDY    55  36  48 NW15      29.98R
RALEIGH NC     PTCLDY    62  41  46 CALM      29.98S
ATLANTA GA     CLEAR     65  33  30 NW9       29.98S
NEW ORLEANS LA MOSUNNY   73  40  30 N7        30.03S
OKLAHOMA CITY  SUNNY     75  36  24 N14       30.12S
ALBUQUERQUE NM SUNNY     72  17  12 S9        30.27F
SALT LAKE CITY MOSUNNY   68  29  23 N6        30.15F
LOS ANGELES CA PTSUNNY   71  62  73 W18       29.95F
BOISE ID       PTSUNNY   73  31  21 S14G21    29.99F
SEATTLE WA     LGT RAIN  59  53  80 SE12      29.78F
$$

*** WEATHER ACROSS MANITOBA...SASKATCHEWAN AND ONTARIO ***
                ***ONTARIO***

CITY           SKY/WX    TMP DP  RH WIND       PRES   REMARKS
GERALDTON      LGT SNOW N/A N/A N/A N6          N/A
THUNDER BAY    MOCLDY    36  32  87 NW7       30.05R
SIOUX LOOKOUT  FLURRIES  27  19  74 N14G26    30.21R WCI  15
TORONTO        MOCLDY    46  32  57 W7        30.04F
BIG TROUT LK   FLURRIES  28  25  86 N12       30.30R WCI  18
PICKLE LAKE    LGT SNOW  25  21  86 N14G25    30.21R WCI  13
DRYDEN         PTCLDY    27  21  80 N13G26    30.25R WCI  16
KENORA         FLURRIES  28  16  59 N15G26    30.32R WCI  17
$$
                *** MANITOBA***

CITY           SKY/WX    TMP DP  RH WIND       PRES   REMARKS
BRANDON        MOSUNNY   36  18  48 NE10      30.51R
DAUPHIN        CLEAR     34  23  64 NE12G17   30.55R
ISLAND LAKE    CLOUDY    27  23  86 N8        30.47R WCI  18
PILOT MOUND      N/A     34  18  51 N16G23      N/A  WCI  23
THE PAS        PTCLDY    32  19  59 CALM      30.54R
THOMPSON       CLEAR     27  18  69 NW5       30.50S WCI  21
WINNIPEG       PTCLDY    34  16  47 N21G28    30.47R WCI  22
LYNN LAKE      CLEAR     30  18  59 SW6       30.47S WCI  24
CHURCHILL      CLOUDY    21  19  93 NW14G22   30.45R WCI   8
GILLAM         MOCLDY    21  16  79 NW17G24   30.48R WCI   7
$$
                ***SASKATCHEWAN***

CITY           SKY/WX    TMP DP  RH WIND       PRES   REMARKS
ESTEVAN        CLOUDY    30  23  74 NE3       30.50R
KINDERSLEY     PTSUNNY   34  28  80 SE18G25   30.32F WCI  23
LLOYDMINSTER   CLOUDY    32  27  80 SE20G29   30.29F WCI  20
PRINCE ALBERT  MOSUNNY   34  21  60 S8        30.49F
REGINA         PTSUNNY   30  25  80 SE13      30.50S WCI  20
YORKTON        SUNNY     32  19  59 N6        30.53R



USA.gov is the U.S. government's official web portal to all federal, state and local government web resources and services.